Location: Strawberry
(45.6646°N, 111.9596°W)
Time: 17:39:33
(UTC+00:00)

SR - Pass Details

Date: 08 October 2022
Orbit: 577 x 874 km, 66.7° (Epoch: 05 December)

Event Time Altitude Azimuth Distance (km) Brightness Sun altitude
Rises 05:51:37 0° 280° (W) 3,468 ? -46.3°
Reaches altitude 10° 05:55:39 10° 307° (NW) 2,518 ? -46.6°
Enters shadow 05:56:01 11° 310° (NW) 2,460 ? -46.7°
